Vertical_Velocity
-3 1 2 1 -0 -3 4 -2 2 6 9 -3 -35 4 3 1 -6 -5 2 -3 -3 -1 -1 -1 0 0 -3 0 2 1 -3 -3
2 5 3 -0 5 9 1 4 6 -19 -11 -4 -13 9 0 2 -6 -6 -7 -2 1 3 -2 -1 -1 -1 2 1 -0 -6 -2 -6
2 5 2 4 4 2 3 1 -1 -5 -1 4 4 2 -5 -4 -5 1 0 -2 -5 -3 -1 -4 1 1 -4 -2 -3 -3 -2 -11
2 0 0 2 2 3 -1 -6 -4 -1 2 2 -1 -8 -1 -2 -6 -5 -2 -1 -1 -2 -0 1 -0 -1 -2 -4 -4 -4 -6 -2
0 -1 1 1 1 1 -1 -0 5 5 -0 -3 -0 1 -1 2 0 -0 -1 -0 0 2 0 -0 -2 -1 -0 -1 -3 -2 -4 -1
-1 0 3 2 -0 -1 0 -1 1 1 1 1 0 0 1 1 1 2 2 -0 2 0 -2 -0 1 -0 -2 -5 -4 -6 -5 -5
-0 1 0 -3 -2 -3 -2 0 1 2 2 -0 -1 -0 1 0 -1 2 -0 -1 -1 0 -0 -1 -2 -3 -6 -7 -5 -5 1 2
1 -0 -2 1 1 0 -0 0 -0 -1 -0 2 2 1 -0 -1 1 1 1 2 1 -1 -2 -4 -5 -3 -2 3 2 2 2 2
-1 -1 -0 -1 -0 -1 -0 1 1 1 3 -0 4 0 -0 0 -0 2 -0 -1 -2 -3 -2 -1 1 0 0 -2 -1 1 3 -3
0 -1 -1 -1 -1 -1 1 1 0 1 -4 -0 0 -2 -2 -2 0 -0 -1 -2 -2 -4 -2 -1 1 -1 -2 -1 0 2 1 -2
-1 0 -0 0 0 3 2 1 -2 -1 2 1 -0 -1 -2 -1 1 -1 -2 -3 -3 -0 1 -1 -1 -1 -2 -1 1 -0 -0 0
2 1 1 0 1 1 -1 -0 -0 -0 1 -2 -3 -5 -0 -1 -2 -2 -4 -3 -1 -2 -3 -3 -2 -1 -2 -2 -0 -1 0 -1
1 1 0 1 0 -0 -0 -1 -3 2 2 -1 -5 -0 -1 -2 -3 -2 0 1 -2 -5 -5 -3 -4 -2 -0 1 1 1 0 -1
-1 -0 3 2 3 3 -1 -1 10 -3 -3 -4 1 -1 -2 -2 1 2 -2 -4 -5 -4 -5 -4 -2 -3 -2 -2 -1 1 0 -1
2 3 1 3 3 -3 -1 6 -2 -1 1 2 -1 -0 -0 0 -1 -3 -3 -4 -4 -2 -1 -2 -4 -3 0 -1 0 -0 -1 -1
-0 3 1 2 -1 -0 3 -0 -1 2 0 0 -1 -0 0 -2 -3 -3 -5 -3 -1 -2 -3 -4 -4 -1 2 -1 -1 -1 -0 1
0 2 2 3 1 2 1 2 1 -1 0 1 1 -1 -2 -3 -2 -3 -1 -2 -4 -4 -4 -4 -2 -1 -1 1 -0 -1 0 -1
1 4 5 3 2 -0 3 1 -1 1 -0 1 -2 -2 -2 -2 -2 -1 -1 -2 -3 -2 -1 -1 2 -4 -0 -1 1 -0 0 -1
1 2 3 3 0 5 1 -2 1 0 -0 -3 -2 -1 -2 -3 -1 -2 -2 -3 -3 -0 -3 0 2 -3 -2 0 -0 0 -0 -0
Height
3164 3166 3167 3168 3168 3167 3169 3169 3168 3166 3166 3158 3159 3164 3163 3163 3162 3160 3160 3159 3156 3152 3148 3144 3140 3136 3131 3128 3123 3118 3112 3106
3161 3164 3165 3166 3166 3166 3166 3165 3163 3156 3161 3155 3160 3161 3160 3159 3157 3157 3156 3153 3148 3145 3141 3138 3134 3129 3125 3119 3114 3108 3103 3097
3159 3161 3162 3163 3162 3161 3160 3160 3159 3157 3158 3158 3159 3159 3157 3154 3153 3152 3149 3146 3143 3139 3135 3130 3126 3120 3114 3109 3104 3099 3094 3085
3156 3157 3158 3158 3157 3157 3157 3156 3156 3157 3157 3156 3155 3153 3151 3150 3148 3145 3142 3138 3134 3130 3126 3122 3117 3111 3106 3099 3093 3088 3082 3078
3152 3152 3153 3154 3155 3154 3153 3154 3154 3153 3151 3149 3148 3147 3145 3143 3140 3137 3133 3130 3127 3123 3118 3113 3107 3101 3095 3089 3082 3077 3071 3065
3148 3149 3150 3151 3151 3151 3152 3151 3149 3148 3146 3145 3144 3142 3140 3137 3135 3131 3128 3124 3120 3114 3109 3103 3097 3090 3084 3077 3071 3065 3060 3053
3144 3146 3147 3148 3149 3149 3148 3147 3145 3144 3143 3141 3140 3137 3135 3132 3129 3125 3120 3116 3110 3104 3098 3092 3085 3079 3073 3066 3059 3052 3049 3044
3141 3143 3144 3145 3145 3144 3143 3143 3142 3140 3139 3137 3134 3131 3129 3126 3122 3117 3113 3107 3101 3094 3088 3081 3075 3068 3062 3057 3052 3047 3043 3038
3138 3139 3141 3141 3141 3140 3139 3137 3136 3134 3133 3130 3127 3125 3122 3118 3113 3109 3103 3096 3091 3085 3078 3072 3065 3059 3053 3048 3044 3039 3035 3030
3135 3136 3137 3137 3136 3136 3135 3133 3131 3129 3126 3124 3121 3118 3114 3110 3105 3099 3094 3088 3082 3075 3069 3063 3056 3050 3044 3039 3035 3032 3027 3021
3132 3133 3133 3133 3132 3130 3129 3127 3125 3123 3120 3116 3113 3110 3106 3101 3096 3091 3085 3079 3073 3067 3061 3055 3048 3041 3035 3030 3027 3022 3019 3014
3128 3129 3128 3127 3126 3124 3123 3120 3118 3116 3112 3108 3105 3102 3098 3092 3088 3082 3076 3071 3065 3058 3051 3044 3037 3031 3025 3021 3018 3014 3010 3007
3122 3123 3122 3121 3119 3117 3115 3112 3110 3107 3105 3101 3097 3094 3089 3085 3080 3074 3068 3062 3055 3048 3041 3035 3028 3022 3017 3013 3010 3006 3003 3000
3117 3116 3115 3113 3112 3110 3108 3106 3103 3101 3097 3093 3090 3085 3081 3077 3072 3067 3059 3052 3045 3039 3033 3026 3020 3015 3011 3006 3003 2999 2997 2992
3111 3110 3108 3107 3105 3104 3101 3099 3096 3094 3090 3086 3082 3078 3074 3069 3063 3057 3050 3043 3037 3031 3025 3019 3014 3009 3003 2999 2996 2992 2989 2986
3104 3104 3102 3101 3098 3097 3095 3092 3089 3086 3083 3079 3075 3071 3066 3060 3054 3048 3041 3035 3030 3024 3018 3012 3007 3001 2997 2993 2989 2986 2983 2980
3098 3097 3095 3093 3091 3089 3087 3084 3082 3078 3074 3071 3067 3063 3057 3051 3045 3039 3033 3028 3022 3016 3010 3004 2999 2994 2991 2987 2984 2981 2977 2973
3090 3089 3088 3086 3084 3082 3079 3077 3073 3070 3068 3064 3059 3054 3049 3043 3037 3032 3026 3020 3015 3009 3003 2997 2992 2988 2985 2981 2978 2975 2971 2967
3083 3082 3081 3079 3076 3074 3071 3068 3065 3063 3060 3056 3051 3045 3040 3035 3029 3024 3019 3013 3007 3001 2996 2991 2986 2981 2978 2976 2972 2969 2966 2961